Location: Izdebno
(52.6670°N, 16.2170°E)
Time: 03:53:31
(UTC+02:00)

Transit 2A - Pass Details

Date: 28 February 2024
Orbit: 596 x 956 km, 66.7° (Epoch: 21 April)

Event Time Altitude Azimuth Distance (km) Brightness Sun altitude
Rises 19:02:54 0° 206° (SSW) 2,846 9.2 -14.7°
Reaches altitude 10° 19:05:09 10° 203° (SSW) 1,934 8.3 -15.0°
Maximum altitude 19:09:23 60° 124° (SE) 689 5.5 -15.6°
Enters shadow 19:12:46 16° 47° (NE) 1,607 7.3 -16.2°
Drops below altitude 10° 19:13:43 10° 45° (NE) 1,977 - -16.3°
Sets 19:16:03 0° 42° (NE) 2,916 - -16.6°
